Twin Falls, ID

9:43 AM MDT on July 22, 2017 (GMT -0600)
Joslin Field-Magic Valley Regional

Weather History for KTWF - May, 2014

Change the Weather History Date:

Saturday, May 17, 2014

  Actual Average Record
Temperature  
Mean Temperature 66 °F -  
Max Temperature 79 °F 71 °F 90 °F (1988)
Min Temperature 53 °F 43 °F 30 °F (2011)
Degree Days  
Heating Degree Days 0 9  
Month to date heating degree days 133 186  
Since 1 July heating degree days 5457 5984  
Cooling Degree Days 1 1  
Month to date cooling degree days 17 5  
Year to date cooling degree days 17 6  
Growing Degree Days 16 (Base 50)    
Moisture  
Dew Point 35 °F    
Average Humidity 35    
Maximum Humidity 50    
Minimum Humidity 19    
Precipitation  
Precipitation 0.00 in 0.05 in 0.52 in (1987)
Month to date precipitation 0.63 0.75  
Year to date precipitation 5.58 4.72  
Sea Level Pressure  
Sea Level Pressure 29.76 in    
Wind  
Wind Speed 10 mph (WSW)    
Max Wind Speed 17 mph    
Max Gust Speed 22 mph    
Visibility 10 miles    
Events      
T = Trace of Precipitation, MM = Missing Value Source: NWS Daily Summary

Daily Weather History Graph

Daily Weather History Graph

Search for Another Location

Airport or City:

Trip Planner

Search our weather history database for the weather conditions in past years. The results will help you decide how hot, cold, wet, or windy it might be!

Date:

Astronomy

May. 17, 2014 Rise Set
Actual Time 6:14 AM MDT 8:55 PM MDT
Civil Twilight 5:41 AM MDT 9:27 PM MDT
Nautical Twilight 5:00 AM MDT 10:08 PM MDT
Astronomical Twilight 4:14 AM MDT 10:55 PM MDT
Moon 11:58 PM MDT (5/17) 9:01 AM MDT (5/17)
Length of Visible Light 15h 46m
Length of Day
14h 41m
Waning Gibbous, 89% of the Moon is Illuminated
May 17
Waning Gibbous
May 21
Last Quarter
May 28
New
Jun 5
First Quarter
Jun 12
Full

Hourly Weather History & Observations

Time (MDT) Temp. Dew Point Humidity Pressure Visibility Wind Dir Wind Speed Gust Speed Precip Events Conditions
12:53 AM 60.1 °F 39.9 °F 47% 29.81 in 10.0 mi SSW 11.5 mph - N/A   Clear
1:53 AM 60.1 °F 37.9 °F 44% 29.80 in 10.0 mi SSW 12.7 mph - N/A   Clear
2:53 AM 57.9 °F 37.0 °F 46% 29.80 in 10.0 mi SSW 11.5 mph - N/A   Clear
3:53 AM 57.9 °F 37.0 °F 46% 29.79 in 10.0 mi South 8.1 mph - N/A   Clear
4:53 AM 57.0 °F 37.0 °F 47% 29.81 in 10.0 mi SSW 10.4 mph - N/A   Clear
5:53 AM 55.0 °F 35.1 °F 47% 29.84 in 10.0 mi SW 12.7 mph - N/A   Clear
6:53 AM 54.0 °F 36.0 °F 51% 29.86 in 10.0 mi SSW 11.5 mph - N/A   Clear
7:53 AM 57.0 °F 37.0 °F 47% 29.87 in 10.0 mi SSW 11.5 mph - N/A   Clear
8:53 AM 63.0 °F 36.0 °F 37% 29.86 in 10.0 mi SW 13.8 mph - N/A   Clear
9:53 AM 66.0 °F 36.0 °F 33% 29.85 in 10.0 mi WSW 13.8 mph 23.0 mph N/A   Clear
10:53 AM 70.0 °F 36.0 °F 29% 29.84 in 10.0 mi West 15.0 mph - N/A   Clear
11:53 AM 71.1 °F 36.0 °F 28% 29.83 in 10.0 mi West 11.5 mph - N/A   Clear
12:53 PM 73.9 °F 35.1 °F 24% 29.80 in 10.0 mi West 8.1 mph - N/A   Clear
1:53 PM 75.9 °F 34.0 °F 22% 29.78 in 10.0 mi SW 6.9 mph - N/A   Clear
2:53 PM 77.0 °F 35.1 °F 22% 29.74 in 10.0 mi NNW 13.8 mph - N/A   Clear
3:53 PM 77.0 °F 34.0 °F 21% 29.71 in 10.0 mi NW 9.2 mph - N/A   Clear
4:53 PM 78.1 °F 33.1 °F 19% 29.68 in 10.0 mi NNE 4.6 mph - N/A   Clear
5:53 PM 78.1 °F 33.1 °F 19% 29.67 in 10.0 mi North 9.2 mph - N/A   Clear
6:53 PM 77.0 °F 32.0 °F 19% 29.64 in 10.0 mi NW 8.1 mph - N/A   Clear
7:53 PM 73.9 °F 33.1 °F 22% 29.64 in 10.0 mi NW 5.8 mph - N/A   Clear
8:53 PM 66.0 °F 35.1 °F 32% 29.63 in 10.0 mi West 4.6 mph - N/A   Clear
9:53 PM 57.9 °F 37.0 °F 46% 29.64 in 10.0 mi SW 5.8 mph - N/A   Clear
10:53 PM 63.0 °F 33.1 °F 33% 29.62 in 10.0 mi SW 10.4 mph - N/A   Clear
11:53 PM 57.9 °F 34.0 °F 41% 29.62 in 10.0 mi SSW 10.4 mph - N/A   Clear